Miscellaneous Local Product
Issued by NWS Hastings, NE

Home | Current Version | Previous Version | Graphics & Text | Print | Product List | Glossary On
Versions: 1 2 3 4 5 6 7 8 9 10 11 12 13 14 15 16 17 18 19 20 21 22 23 24 25 26 27 28 29 30 31 32 33 34 35 36 37 38 39 40 41 42 43 44 45 46 47 48 49 50
000
AXUS43 KGID 200302
MISGRI

GID CWA HOURLY WEATHER ROUNDUP
NATIONAL WEATHER SERVICE HASTINGS NE
1000 PM CDT SAT APR 19 2014

NOTE: "FAIR" INDICATES FEW OR NO CLOUDS BELOW 12,000 FEET WITH NO
SIGNIFICANT WEATHER AND/OR OBSTRUCTIONS TO VISIBILITY.

...SOUTH CENTRAL NEBRASKA...

CITY           SKY/WX    TMP DP  RH WIND       PRES   REMARKS
GRAND ISLAND   PTCLDY    64  50  60 NE6       29.94S
HASTINGS       PTCLDY    65  48  54 CALM      29.94R
KEARNEY        MOCLDY    61  48  63 N8        29.97R
ORD            MOCLDY    57  47  69 NW8       29.98R
YORK           PTCLDY    68  48  49 SE12      29.96R
AURORA         PTCLDY    69  51  51 SE8       29.95R
LEXINGTON      MOCLDY    57  49  74 N7        29.98R
HOLDREGE       CLOUDY    61  49  64 N9        29.97R
HEBRON         PTCLDY    67  48  49 SE9       29.97R

...NEBRASKA PANHANDLE...

CITY           SKY/WX    TMP DP  RH WIND       PRES   REMARKS
CHADRON        CLEAR     50  35  56 CALM      29.99R
ALLIANCE       PTCLDY    49  32  52 SE3       30.02R
SCOTTSBLUFF    CLEAR     55  34  45 SE10      30.02R
SIDNEY         PTCLDY    49  34  56 CALM      30.05R

...WESTERN AND NORTH CENTRAL NEBRASKA...

CITY           SKY/WX    TMP DP  RH WIND       PRES   REMARKS
VALENTINE      PTCLDY    52  13  21 E5        30.03R
AINSWORTH      MOCLDY    53  28  38 NE6       30.03S
ONEILL         CLOUDY    58  35  41 NE7       30.02S
BROKEN BOW     MOCLDY    59  43  55 NE9       30.00R
IMPERIAL       PTCLDY    52  41  66 N8        30.01R
NORTH PLATTE   CLOUDY    57  43  59 NE8       30.00S
MCCOOK         MOCLDY    59  48  67 N12       29.98R

...EASTERN NEBRASKA...

CITY           SKY/WX    TMP DP  RH WIND       PRES   REMARKS
NORFOLK        MOCLDY    63  48  58 CALM      29.99R
SO SIOUX CITY  CLOUDY    64  49  57 E5        29.98R
TEKAMAH        CLOUDY    73  44  35 S16       29.97R
COLUMBUS       MOCLDY    66  48  52 NE3       29.98R
ALBION         CLOUDY    63  47  56 NE9       29.99R
OMAHA EPPLEY   CLOUDY    72  43  35 S20       29.99R
OFFUTT AFB     CLOUDY    71  45  39 SE15      30.00R
MILLARD        CLOUDY    72  44  37 S15G23    29.99R
LINCOLN        PTCLDY    72  44  36 S16       29.98R
NEBRASKA CITY  PTCLDY    68  43  40 S18       30.01R
BEATRICE       PTCLDY    69  44  40 SE12G17   29.99R
FALLS CITY     PTCLDY    61  46  57 SE10      30.04R

...NORTHERN KANSAS...

CITY           SKY/WX    TMP DP  RH WIND       PRES   REMARKS
GOODLAND       MOCLDY    57  50  77 E12       30.02R
HILL CITY      CLOUDY    67  54  63 W12       29.97R
PHILLIPSBURG   PTCLDY    70  48  46 S5        29.95R
SMITH CENTER   CLEAR     66  48  52 SE15      29.95R
BELOIT         CLEAR     70  48  46 SE8       29.96R
HAYS           CLOUDY    70  48  46 S13       29.96R
RUSSELL        MOCLDY    68  50  52 S17       29.94R
CONCORDIA      CLEAR     71  49  45 S16G22    29.97R
SALINA         PTCLDY    70  49  47 S16       29.99R
TOPEKA         MOCLDY    66  44  45 SE8       30.06R



USA.gov is the U.S. government's official web portal to all federal, state and local government web resources and services.